Wetterdaten: aktuell Freitag, 21.01.2022 11:10
Datum Zeit Temp. 2m Temp. 5cm Feuchte A. Luftdruck Regen Wind Richtung Richtung Sonnenschein ET UV Solar Windben
21.01.2022 11:10 0,9 C 1,1 C 76 % 1028,3 hPa 0,0 l/m 9,7 km/h (2 Bft) W-NW 292 5 min 0,000 mm 0,6 UV-I 246 W/m 12,9 km/h (3 Bft)
21.01.2022 11:05 0,3 C 1,1 C 80 % 1028,2 hPa 0,0 l/m 6,4 km/h (2 Bft) NW 315 5 min 0,000 mm 0,5 UV-I 241 W/m 12,9 km/h (3 Bft)
21.01.2022 11:00 0,1 C 1,1 C 80 % 1028,2 hPa 0,0 l/m 8,0 km/h (2 Bft) NW 315 5 min 0,076 mm 0,5 UV-I 236 W/m 14,5 km/h (3 Bft)
21.01.2022 10:55 -0,2 C 0,6 C 81 % 1028,2 hPa 0,0 l/m 6,4 km/h (2 Bft) NW 315 5 min 0,000 mm 0,5 UV-I 227 W/m 12,9 km/h (3 Bft)
21.01.2022 10:50 -0,3 C 0,6 C 81 % 1028,3 hPa 0,0 l/m 8,0 km/h (2 Bft) W-NW 292 5 min 0,000 mm 0,5 UV-I 218 W/m 14,5 km/h (3 Bft)
21.01.2022 10:45 -0,4 C 0,6 C 81 % 1028,3 hPa 0,0 l/m 8,0 km/h (2 Bft) W-NW 292 5 min 0,000 mm 0,5 UV-I 211 W/m 12,9 km/h (3 Bft)
21.01.2022 10:40 -0,4 C 0,0 C 82 % 1028,4 hPa 0,0 l/m 6,4 km/h (2 Bft) NW 315 5 min 0,000 mm 0,5 UV-I 204 W/m 8,0 km/h (2 Bft)
21.01.2022 10:35 -0,6 C 0,0 C 82 % 1028,5 hPa 0,0 l/m 4,8 km/h (1 Bft) NW 315 5 min 0,000 mm 0,5 UV-I 197 W/m 11,3 km/h (2 Bft)
21.01.2022 10:30 -0,6 C 0,0 C 82 % 1028,4 hPa 0,0 l/m 6,4 km/h (2 Bft) NW 315 5 min 0,000 mm 0,0 UV-I 186 W/m 9,7 km/h (2 Bft)
21.01.2022 10:25 -0,7 C 0,0 C 82 % 1028,5 hPa 0,0 l/m 6,4 km/h (2 Bft) NW 315 5 min 0,000 mm 0,0 UV-I 179 W/m 11,3 km/h (2 Bft)
21.01.2022 10:20 -0,8 C 0,0 C 82 % 1028,4 hPa 0,0 l/m 8,0 km/h (2 Bft) NW 315 5 min 0,000 mm 0,0 UV-I 171 W/m 12,9 km/h (3 Bft)
21.01.2022 10:15 -0,9 C -0,6 C 83 % 1028,3 hPa 0,0 l/m 8,0 km/h (2 Bft) NW 315 5 min 0,000 mm 0,0 UV-I 160 W/m 11,3 km/h (2 Bft)
21.01.2022 10:10 -1,0 C -0,6 C 83 % 1028,2 hPa 0,0 l/m 8,0 km/h (2 Bft) NW 315 5 min 0,000 mm 0,0 UV-I 151 W/m 14,5 km/h (3 Bft)
21.01.2022 10:05 -1,1 C -0,6 C 84 % 1028,2 hPa 0,0 l/m 8,0 km/h (2 Bft) NW 315 5 min 0,000 mm 0,0 UV-I 144 W/m 14,5 km/h (3 Bft)
21.01.2022 10:00 -1,3 C -0,6 C 84 % 1028,1 hPa 0,0 l/m 9,7 km/h (2 Bft) NW 315 5 min 0,025 mm 0,0 UV-I 135 W/m 16,1 km/h (3 Bft)
21.01.2022 09:55 -1,4 C -1,1 C 84 % 1028,0 hPa 0,0 l/m 9,7 km/h (2 Bft) NW 315 5 min 0,000 mm 0,0 UV-I 125 W/m 14,5 km/h (3 Bft)
21.01.2022 09:50 -1,5 C -1,1 C 85 % 1028,0 hPa 0,0 l/m 6,4 km/h (2 Bft) NW 315 5 min 0,000 mm 0,0 UV-I 114 W/m 12,9 km/h (3 Bft)
21.01.2022 09:45 -1,6 C -1,7 C 85 % 1028,0 hPa 0,0 l/m 6,4 km/h (2 Bft) NW 315 5 min 0,000 mm 0,0 UV-I 105 W/m 11,3 km/h (2 Bft)
21.01.2022 09:40 -1,6 C -1,7 C 85 % 1028,0 hPa 0,0 l/m 6,4 km/h (2 Bft) NW 315 5 min 0,000 mm 0,0 UV-I 95 W/m 12,9 km/h (3 Bft)
21.01.2022 09:35 -1,6 C -2,2 C 85 % 1027,9 hPa 0,0 l/m 4,8 km/h (1 Bft) NW 315 0 min 0,000 mm 0,0 UV-I 76 W/m 8,0 km/h (2 Bft)
21.01.2022 09:30 -1,6 C -2,2 C 85 % 1027,9 hPa 0,0 l/m 4,8 km/h (1 Bft) NW 315 0 min 0,000 mm 0,0 UV-I 35 W/m 6,4 km/h (2 Bft)
21.01.2022 09:25 -1,6 C -2,2 C 85 % 1028,0 hPa 0,0 l/m 4,8 km/h (1 Bft) W-NW 292 0 min 0,000 mm 0,0 UV-I 28 W/m 8,0 km/h (2 Bft)
21.01.2022 09:20 -1,7 C -2,2 C 84 % 1028,0 hPa 0,0 l/m 6,4 km/h (2 Bft) NW 315 0 min 0,000 mm 0,0 UV-I 30 W/m 14,5 km/h (3 Bft)
21.01.2022 09:15 -1,7 C -2,2 C 84 % 1027,9 hPa 0,0 l/m 4,8 km/h (1 Bft) W-NW 292 0 min 0,000 mm 0,0 UV-I 49 W/m 11,3 km/h (2 Bft)
21.01.2022 09:10 -1,6 C -2,2 C 84 % 1027,9 hPa 0,0 l/m 4,8 km/h (1 Bft) NW 315 0 min 0,000 mm 0,0 UV-I 44 W/m 8,0 km/h (2 Bft)
21.01.2022 09:05 -1,6 C -2,2 C 84 % 1027,8 hPa 0,0 l/m 6,4 km/h (2 Bft) W-NW 292 0 min 0,000 mm 0,0 UV-I 39 W/m 11,3 km/h (2 Bft)
21.01.2022 09:00 -1,6 C -2,8 C 84 % 1027,7 hPa 0,0 l/m 4,8 km/h (1 Bft) W-NW 292 0 min 0,000 mm 0,0 UV-I 33 W/m 8,0 km/h (2 Bft)
21.01.2022 08:55 -1,5 C -2,8 C 84 % 1027,7 hPa 0,0 l/m 4,8 km/h (1 Bft) W-NW 292 0 min 0,000 mm 0,0 UV-I 25 W/m 8,0 km/h (2 Bft)
21.01.2022 08:50 -1,4 C -2,8 C 84 % 1027,7 hPa 0,0 l/m 3,2 km/h (1 Bft) NW 315 0 min 0,000 mm 0,0 UV-I 18 W/m 6,4 km/h (2 Bft)
21.01.2022 08:45 -1,4 C -2,8 C 84 % 1027,6 hPa 0,0 l/m 3,2 km/h (1 Bft) NW 315 0 min 0,000 mm 0,0 UV-I 14 W/m 8,0 km/h (2 Bft)
21.01.2022 08:40 -1,3 C -2,8 C 84 % 1027,6 hPa 0,0 l/m 3,2 km/h (1 Bft) NW 315 0 min 0,000 mm 0,0 UV-I 11 W/m 6,4 km/h (2 Bft)
21.01.2022 08:35 -1,3 C -2,8 C 84 % 1027,6 hPa 0,0 l/m 3,2 km/h (1 Bft) NW 315 0 min 0,000 mm 0,0 UV-I 11 W/m 8,0 km/h (2 Bft)
21.01.2022 08:30 -1,3 C -2,8 C 84 % 1027,6 hPa 0,0 l/m 3,2 km/h (1 Bft) NW 315 0 min 0,000 mm 0,0 UV-I 9 W/m 6,4 km/h (2 Bft)
21.01.2022 08:25 -1,2 C -2,2 C 84 % 1027,4 hPa 0,0 l/m 4,8 km/h (1 Bft) NW 315 0 min 0,000 mm 0,0 UV-I 9 W/m 8,0 km/h (2 Bft)
21.01.2022 08:20 -1,2 C -2,2 C 84 % 1027,5 hPa 0,0 l/m 6,4 km/h (2 Bft) NW 315 0 min 0,000 mm 0,0 UV-I 7 W/m 12,9 km/h (3 Bft)
21.01.2022 08:15 -1,2 C -2,2 C 85 % 1027,4 hPa 0,0 l/m 8,0 km/h (2 Bft) NW 315 0 min 0,000 mm 0,0 UV-I 5 W/m 14,5 km/h (3 Bft)
21.01.2022 08:10 -1,2 C -2,2 C 85 % 1027,3 hPa 0,0 l/m 8,0 km/h (2 Bft) NW 315 0 min 0,000 mm 0,0 UV-I 0 W/m 12,9 km/h (3 Bft)
21.01.2022 08:05 -1,1 C -2,2 C 85 % 1027,3 hPa 0,0 l/m 8,0 km/h (2 Bft) NW 315 0 min 0,000 mm 0,0 UV-I 0 W/m 12,9 km/h (3 Bft)
21.01.2022 08:00 -1,1 C -2,2 C 85 % 1027,3 hPa 0,0 l/m 8,0 km/h (2 Bft) NW 315 0 min 0,000 mm 0,0 UV-I 0 W/m 11,3 km/h (2 Bft)
21.01.2022 07:55 -1,0 C -2,2 C 85 % 1027,3 hPa 0,0 l/m 8,0 km/h (2 Bft) NW 315 0 min 0,000 mm 0,0 UV-I 0 W/m 12,9 km/h (3 Bft)
21.01.2022 07:50 -1,0 C -2,2 C 85 % 1027,1 hPa 0,0 l/m 6,4 km/h (2 Bft) NW 315 0 min 0,000 mm 0,0 UV-I 0 W/m 12,9 km/h (3 Bft)
21.01.2022 07:45 -0,9 C -2,2 C 85 % 1027,0 hPa 0,0 l/m 6,4 km/h (2 Bft) NW 315 0 min 0,000 mm 0,0 UV-I 0 W/m 9,7 km/h (2 Bft)
21.01.2022 07:40 -0,9 C -2,2 C 85 % 1027,0 hPa 0,0 l/m 4,8 km/h (1 Bft) NW 315 0 min 0,000 mm 0,0 UV-I 0 W/m 8,0 km/h (2 Bft)
21.01.2022 07:35 -0,8 C -2,2 C 85 % 1026,9 hPa 0,0 l/m 4,8 km/h (1 Bft) NW 315 0 min 0,000 mm 0,0 UV-I 0 W/m 11,3 km/h (2 Bft)
21.01.2022 07:30 -0,8 C -1,7 C 85 % 1026,7 hPa 0,0 l/m 6,4 km/h (2 Bft) NW 315 0 min 0,000 mm 0,0 UV-I 0 W/m 9,7 km/h (2 Bft)
21.01.2022 07:25 -0,7 C -1,7 C 85 % 1026,7 hPa 0,0 l/m 8,0 km/h (2 Bft) NW 315 0 min 0,000 mm 0,0 UV-I 0 W/m 14,5 km/h (3 Bft)
21.01.2022 07:20 -0,7 C -1,7 C 85 % 1026,7 hPa 0,0 l/m 9,7 km/h (2 Bft) NW 315 0 min 0,000 mm 0,0 UV-I 0 W/m 14,5 km/h (3 Bft)
21.01.2022 07:15 -0,6 C -1,7 C 86 % 1026,8 hPa 0,0 l/m 11,3 km/h (2 Bft) NW 315 0 min 0,000 mm 0,0 UV-I 0 W/m 16,1 km/h (3 Bft)
21.01.2022 07:10 -0,6 C -1,7 C 86 % 1026,7 hPa 0,0 l/m 9,7 km/h (2 Bft) NW 315 0 min 0,000 mm 0,0 UV-I 0 W/m 17,7 km/h (3 Bft)
21.01.2022 07:05 -0,6 C -1,7 C 86 % 1026,7 hPa 0,0 l/m 9,7 km/h (2 Bft) NW 315 0 min 0,000 mm 0,0 UV-I 0 W/m 16,1 km/h (3 Bft)
21.01.2022 07:00 -0,4 C -1,7 C 87 % 1026,7 hPa 0,0 l/m 8,0 km/h (2 Bft) NW 315 0 min 0,000 mm 0,0 UV-I 0 W/m 12,9 km/h (3 Bft)
21.01.2022 06:55 -0,4 C -1,1 C 87 % 1026,7 hPa 0,0 l/m 9,7 km/h (2 Bft) NW 315 0 min 0,000 mm 0,0 UV-I 0 W/m 16,1 km/h (3 Bft)
21.01.2022 06:50 -0,4 C -1,1 C 87 % 1026,5 hPa 0,0 l/m 9,7 km/h (2 Bft) NW 315 0 min 0,000 mm 0,0 UV-I 0 W/m 16,1 km/h (3 Bft)
21.01.2022 06:45 -0,4 C -1,1 C 88 % 1026,5 hPa 0,0 l/m 11,3 km/h (2 Bft) NW 315 0 min 0,000 mm 0,0 UV-I 0 W/m 16,1 km/h (3 Bft)
21.01.2022 06:40 -0,4 C -1,1 C 88 % 1026,5 hPa 0,0 l/m 12,9 km/h (3 Bft) NW 315 0 min 0,000 mm 0,0 UV-I 0 W/m 19,3 km/h (3 Bft)
21.01.2022 06:35 -0,5 C -1,1 C 88 % 1026,5 hPa 0,0 l/m 11,3 km/h (2 Bft) NW 315 0 min 0,000 mm 0,0 UV-I 0 W/m 19,3 km/h (3 Bft)
21.01.2022 06:30 -0,6 C -1,1 C 88 % 1026,6 hPa 0,0 l/m 11,3 km/h (2 Bft) N-NW 337 0 min 0,000 mm 0,0 UV-I 0 W/m 16,1 km/h (3 Bft)
21.01.2022 06:25 -0,6 C -1,1 C 88 % 1026,5 hPa 0,0 l/m 11,3 km/h (2 Bft) N-NW 337 0 min 0,000 mm 0,0 UV-I 0 W/m 16,1 km/h (3 Bft)
21.01.2022 06:20 -0,6 C -1,1 C 88 % 1026,4 hPa 0,0 l/m 11,3 km/h (2 Bft) NW 315 0 min 0,000 mm 0,0 UV-I 0 W/m 14,5 km/h (3 Bft)
21.01.2022 06:15 -0,6 C -1,1 C 88 % 1026,3 hPa 0,0 l/m 9,7 km/h (2 Bft) N-NW 337 0 min 0,000 mm 0,0 UV-I 0 W/m 16,1 km/h (3 Bft)
21.01.2022 06:10 -0,7 C -1,1 C 88 % 1026,2 hPa 0,0 l/m 9,7 km/h (2 Bft) NW 315 0 min 0,000 mm 0,0 UV-I 0 W/m 17,7 km/h (3 Bft)
21.01.2022 06:05 -0,7 C -1,7 C 87 % 1026,0 hPa 0,0 l/m 8,0 km/h (2 Bft) NW 315 0 min 0,000 mm 0,0 UV-I 0 W/m 14,5 km/h (3 Bft)
21.01.2022 06:00 -0,7 C -1,7 C 87 % 1026,0 hPa 0,0 l/m 6,4 km/h (2 Bft) NW 315 0 min 0,000 mm 0,0 UV-I 0 W/m 14,5 km/h (3 Bft)
21.01.2022 05:55 -0,7 C -1,7 C 87 % 1025,9 hPa 0,0 l/m 8,0 km/h (2 Bft) NW 315 0 min 0,000 mm 0,0 UV-I 0 W/m 16,1 km/h (3 Bft)
21.01.2022 05:50 -0,7 C -1,7 C 87 % 1026,0 hPa 0,0 l/m 6,4 km/h (2 Bft) NW 315 0 min 0,000 mm 0,0 UV-I 0 W/m 12,9 km/h (3 Bft)
21.01.2022 05:45 -0,7 C -1,7 C 87 % 1025,9 hPa 0,0 l/m 8,0 km/h (2 Bft) NW 315 0 min 0,000 mm 0,0 UV-I 0 W/m 14,5 km/h (3 Bft)
21.01.2022 05:40 -0,7 C -2,2 C 87 % 1025,9 hPa 0,0 l/m 6,4 km/h (2 Bft) NW 315 0 min 0,000 mm 0,0 UV-I 0 W/m 12,9 km/h (3 Bft)
21.01.2022 05:35 -0,7 C -1,7 C 87 % 1025,9 hPa 0,0 l/m 4,8 km/h (1 Bft) NW 315 0 min 0,000 mm 0,0 UV-I 0 W/m 11,3 km/h (2 Bft)
21.01.2022 05:30 -0,7 C -1,7 C 87 % 1026,0 hPa 0,0 l/m 3,2 km/h (1 Bft) NW 315 0 min 0,000 mm 0,0 UV-I 0 W/m 8,0 km/h (2 Bft)
21.01.2022 05:25 -0,7 C -1,7 C 87 % 1026,1 hPa 0,0 l/m 3,2 km/h (1 Bft) NW 315 0 min 0,000 mm 0,0 UV-I 0 W/m 11,3 km/h (2 Bft)
21.01.2022 05:20 -0,8 C -1,1 C 87 % 1026,2 hPa 0,0 l/m 4,8 km/h (1 Bft) W-NW 292 0 min 0,000 mm 0,0 UV-I 0 W/m 11,3 km/h (2 Bft)
21.01.2022 05:15 -0,9 C -1,1 C 87 % 1026,3 hPa 0,0 l/m 6,4 km/h (2 Bft) W-NW 292 0 min 0,000 mm 0,0 UV-I 0 W/m 12,9 km/h (3 Bft)
21.01.2022 05:10 -0,9 C -1,1 C 87 % 1026,2 hPa 0,0 l/m 4,8 km/h (1 Bft) W-NW 292 0 min 0,000 mm 0,0 UV-I 0 W/m 12,9 km/h (3 Bft)
21.01.2022 05:05 -1,1 C -1,1 C 87 % 1026,2 hPa 0,0 l/m 4,8 km/h (1 Bft) W-NW 292 0 min 0,000 mm 0,0 UV-I 0 W/m 12,9 km/h (3 Bft)
21.01.2022 05:00 -1,2 C -1,1 C 87 % 1026,2 hPa 0,0 l/m 4,8 km/h (1 Bft) NW 315 0 min 0,000 mm 0,0 UV-I 0 W/m 8,0 km/h (2 Bft)
21.01.2022 04:55 -1,3 C -1,1 C 87 % 1026,2 hPa 0,0 l/m 4,8 km/h (1 Bft) W-NW 292 0 min 0,000 mm 0,0 UV-I 0 W/m 9,7 km/h (2 Bft)
21.01.2022 04:50 -1,3 C -1,1 C 87 % 1026,2 hPa 0,0 l/m 3,2 km/h (1 Bft) NW 315 0 min 0,000 mm 0,0 UV-I 0 W/m 11,3 km/h (2 Bft)
21.01.2022 04:45 -1,4 C -1,7 C 86 % 1026,1 hPa 0,0 l/m 3,2 km/h (1 Bft) W-NW 292 0 min 0,000 mm 0,0 UV-I 0 W/m 12,9 km/h (3 Bft)
21.01.2022 04:40 -1,4 C -1,7 C 86 % 1026,2 hPa 0,0 l/m 1,6 km/h (1 Bft) W 270 0 min 0,000 mm 0,0 UV-I 0 W/m 9,7 km/h (2 Bft)
21.01.2022 04:35 -1,5 C -2,2 C 86 % 1026,2 hPa 0,0 l/m 1,6 km/h (1 Bft) W 270 0 min 0,000 mm 0,0 UV-I 0 W/m 6,4 km/h (2 Bft)
21.01.2022 04:30 -1,5 C -2,8 C 86 % 1026,4 hPa 0,0 l/m 3,2 km/h (1 Bft) W-NW 292 0 min 0,000 mm 0,0 UV-I 0 W/m 11,3 km/h (2 Bft)
21.01.2022 04:25 -1,5 C -2,8 C 86 % 1026,3 hPa 0,0 l/m 3,2 km/h (1 Bft) W-NW 292 0 min 0,000 mm 0,0 UV-I 0 W/m 8,0 km/h (2 Bft)
21.01.2022 04:20 -1,6 C -2,2 C 86 % 1026,3 hPa 0,0 l/m 4,8 km/h (1 Bft) W-NW 292 0 min 0,000 mm 0,0 UV-I 0 W/m 12,9 km/h (3 Bft)
21.01.2022 04:15 -1,7 C -2,2 C 86 % 1026,2 hPa 0,0 l/m 3,2 km/h (1 Bft) W-NW 292 0 min 0,000 mm 0,0 UV-I 0 W/m 12,9 km/h (3 Bft)
21.01.2022 04:10 -1,7 C -2,2 C 86 % 1026,3 hPa 0,0 l/m 3,2 km/h (1 Bft) W-NW 292 0 min 0,000 mm 0,0 UV-I 0 W/m 14,5 km/h (3 Bft)
21.01.2022 04:05 -1,8 C -2,8 C 86 % 1026,3 hPa 0,0 l/m 3,2 km/h (1 Bft) W 270 0 min 0,000 mm 0,0 UV-I 0 W/m 9,7 km/h (2 Bft)
21.01.2022 04:00 -1,8 C -2,8 C 86 % 1026,3 hPa 0,0 l/m 3,2 km/h (1 Bft) W 270 0 min 0,000 mm 0,0 UV-I 0 W/m 11,3 km/h (2 Bft)
21.01.2022 03:55 -1,8 C -3,3 C 86 % 1026,3 hPa 0,0 l/m 1,6 km/h (1 Bft) W-NW 292 0 min 0,000 mm 0,0 UV-I 0 W/m 8,0 km/h (2 Bft)
21.01.2022 03:50 -1,9 C -3,3 C 85 % 1026,3 hPa 0,0 l/m 1,6 km/h (1 Bft) W-NW 292 0 min 0,000 mm 0,0 UV-I 0 W/m 9,7 km/h (2 Bft)
21.01.2022 03:45 -1,9 C -3,3 C 85 % 1026,3 hPa 0,0 l/m 1,6 km/h (1 Bft) W 270 0 min 0,000 mm 0,0 UV-I 0 W/m 6,4 km/h (2 Bft)
21.01.2022 03:40 -2,0 C -3,3 C 85 % 1026,2 hPa 0,0 l/m 3,2 km/h (1 Bft) W-NW 292 0 min 0,000 mm 0,0 UV-I 0 W/m 11,3 km/h (2 Bft)
21.01.2022 03:35 -2,1 C -2,8 C 85 % 1026,2 hPa 0,0 l/m 4,8 km/h (1 Bft) W-NW 292 0 min 0,000 mm 0,0 UV-I 0 W/m 14,5 km/h (3 Bft)
21.01.2022 03:30 -2,1 C -2,8 C 85 % 1026,1 hPa 0,0 l/m 4,8 km/h (1 Bft) W-NW 292 0 min 0,000 mm 0,0 UV-I 0 W/m 12,9 km/h (3 Bft)
21.01.2022 03:25 -2,2 C -3,3 C 85 % 1026,1 hPa 0,0 l/m 4,8 km/h (1 Bft) W-NW 292 0 min 0,000 mm 0,0 UV-I 0 W/m 11,3 km/h (2 Bft)
21.01.2022 03:20 -2,3 C -3,3 C 84 % 1026,1 hPa 0,0 l/m 4,8 km/h (1 Bft) W-NW 292 0 min 0,000 mm 0,0 UV-I 0 W/m 9,7 km/h (2 Bft)
21.01.2022 03:15 -2,4 C -2,8 C 84 % 1026,1 hPa 0,0 l/m 6,4 km/h (2 Bft) W-NW 292 0 min 0,000 mm 0,0 UV-I 0 W/m 11,3 km/h (2 Bft)
21.01.2022 03:10 -2,5 C -3,3 C 84 % 1026,2 hPa 0,0 l/m 4,8 km/h (1 Bft) W-NW 292 0 min 0,000 mm 0,0 UV-I 0 W/m 12,9 km/h (3 Bft)
21.01.2022 03:05 -2,6 C -3,9 C 84 % 1026,3 hPa 0,0 l/m 0,0 km/h (0 Bft) W-NW 292 0 min 0,000 mm 0,0 UV-I 0 W/m 3,2 km/h (1 Bft)
21.01.2022 03:00 -2,6 C -3,9 C 84 % 1026,3 hPa 0,0 l/m 1,6 km/h (1 Bft) W-NW 292 0 min 0,000 mm 0,0 UV-I 0 W/m 6,4 km/h (2 Bft)
21.01.2022 02:55 -2,7 C -3,3 C 84 % 1026,4 hPa 0,0 l/m 3,2 km/h (1 Bft) W-NW 292 0 min 0,000 mm 0,0 UV-I 0 W/m 9,7 km/h (2 Bft)
21.01.2022 02:50 -2,8 C -3,9 C 83 % 1026,5 hPa 0,0 l/m 4,8 km/h (1 Bft) W-NW 292 0 min 0,000 mm 0,0 UV-I 0 W/m 9,7 km/h (2 Bft)
21.01.2022 02:47 -2,9 C -3,9 C 83 % 1026,5 hPa 0,0 l/m 3,2 km/h (1 Bft) W-NW 292 0 min 0,000 mm 0,0 UV-I 0 W/m 9,7 km/h (2 Bft)
21.01.2022 02:40 -3,0 C -4,4 C 82 % 1026,5 hPa 0,0 l/m 3,2 km/h (1 Bft) W-NW 292 0 min 0,000 mm 0,0 UV-I 0 W/m 11,3 km/h (2 Bft)
21.01.2022 02:35 -3,1 C -4,4 C 82 % 1026,5 hPa 0,0 l/m 3,2 km/h (1 Bft) W-NW 292 0 min 0,000 mm 0,0 UV-I 0 W/m 6,4 km/h (2 Bft)
21.01.2022 02:30 -3,1 C -4,4 C 82 % 1026,6 hPa 0,0 l/m 1,6 km/h (1 Bft) W-NW 292 0 min 0,000 mm 0,0 UV-I 0 W/m 6,4 km/h (2 Bft)
21.01.2022 02:25 -3,1 C -5,0 C 82 % 1026,6 hPa 0,0 l/m 1,6 km/h (1 Bft) W 270 0 min 0,000 mm 0,0 UV-I 0 W/m 6,4 km/h (2 Bft)
21.01.2022 02:20 -3,2 C -4,4 C 82 % 1026,5 hPa 0,0 l/m 1,6 km/h (1 Bft) NW 315 0 min 0,000 mm 0,0 UV-I 0 W/m 4,8 km/h (1 Bft)
21.01.2022 02:15 -3,2 C -4,4 C 81 % 1026,4 hPa 0,0 l/m 3,2 km/h (1 Bft) NW 315 0 min 0,000 mm 0,0 UV-I 0 W/m 6,4 km/h (2 Bft)
21.01.2022 02:10 -3,2 C -4,4 C 81 % 1026,4 hPa 0,0 l/m 3,2 km/h (1 Bft) W-NW 292 0 min 0,000 mm 0,0 UV-I 0 W/m 6,4 km/h (2 Bft)
21.01.2022 02:05 -3,3 C -4,4 C 81 % 1026,4 hPa 0,0 l/m 3,2 km/h (1 Bft) NW 315 0 min 0,000 mm 0,0 UV-I 0 W/m 8,0 km/h (2 Bft)
21.01.2022 02:00 -3,3 C -4,4 C 81 % 1026,4 hPa 0,0 l/m 1,6 km/h (1 Bft) NW 315 0 min 0,000 mm 0,0 UV-I 0 W/m 4,8 km/h (1 Bft)
21.01.2022 01:55 -3,3 C -4,4 C 80 % 1026,4 hPa 0,0 l/m 3,2 km/h (1 Bft) NW 315 0 min 0,000 mm 0,0 UV-I 0 W/m 6,4 km/h (2 Bft)
21.01.2022 01:50 -3,3 C -5,0 C 80 % 1026,5 hPa 0,0 l/m 3,2 km/h (1 Bft) NW 315 0 min 0,000 mm 0,0 UV-I 0 W/m 4,8 km/h (1 Bft)
21.01.2022 01:45 -3,3 C -5,0 C 79 % 1026,5 hPa 0,0 l/m 3,2 km/h (1 Bft) NW 315 0 min 0,000 mm 0,0 UV-I 0 W/m 6,4 km/h (2 Bft)
21.01.2022 01:40 -3,3 C -5,0 C 79 % 1026,4 hPa 0,0 l/m 3,2 km/h (1 Bft) NW 315 0 min 0,000 mm 0,0 UV-I 0 W/m 6,4 km/h (2 Bft)
21.01.2022 01:35 -3,2 C -5,6 C 78 % 1026,4 hPa 0,0 l/m 3,2 km/h (1 Bft) W-NW 292 0 min 0,000 mm 0,0 UV-I 0 W/m 4,8 km/h (1 Bft)
21.01.2022 01:30 -3,2 C -5,6 C 78 % 1026,5 hPa 0,0 l/m 1,6 km/h (1 Bft) W-NW 292 0 min 0,000 mm 0,0 UV-I 0 W/m 4,8 km/h (1 Bft)
21.01.2022 01:25 -3,2 C -5,6 C 78 % 1026,6 hPa 0,0 l/m 1,6 km/h (1 Bft) W-NW 292 0 min 0,000 mm 0,0 UV-I 0 W/m 4,8 km/h (1 Bft)
21.01.2022 01:20 -3,1 C -5,0 C 78 % 1026,7 hPa 0,0 l/m 1,6 km/h (1 Bft) W-NW 292 0 min 0,000 mm 0,0 UV-I 0 W/m 6,4 km/h (2 Bft)
21.01.2022 01:15 -3,1 C -5,0 C 78 % 1026,8 hPa 0,0 l/m 1,6 km/h (1 Bft) W-NW 292 0 min 0,000 mm 0,0 UV-I 0 W/m 6,4 km/h (2 Bft)
21.01.2022 01:10 -3,1 C -5,0 C 78 % 1026,7 hPa 0,0 l/m 1,6 km/h (1 Bft) W-NW 292 0 min 0,000 mm 0,0 UV-I 0 W/m 4,8 km/h (1 Bft)
21.01.2022 01:05 -3,0 C -5,0 C 78 % 1026,8 hPa 0,0 l/m 1,6 km/h (1 Bft) W-NW 292 0 min 0,000 mm 0,0 UV-I 0 W/m 4,8 km/h (1 Bft)
21.01.2022 01:00 -2,9 C -5,0 C 78 % 1026,8 hPa 0,0 l/m 1,6 km/h (1 Bft) W-NW 292 0 min 0,000 mm 0,0 UV-I 0 W/m 4,8 km/h (1 Bft)
21.01.2022 00:55 -2,9 C -5,0 C 78 % 1026,9 hPa 0,0 l/m 1,6 km/h (1 Bft) W-NW 292 0 min 0,000 mm 0,0 UV-I 0 W/m 6,4 km/h (2 Bft)
21.01.2022 00:50 -2,9 C -5,0 C 78 % 1026,9 hPa 0,0 l/m 0,0 km/h (0 Bft) W-NW 292 0 min 0,000 mm 0,0 UV-I 0 W/m 4,8 km/h (1 Bft)
21.01.2022 00:45 -2,9 C -4,4 C 78 % 1026,8 hPa 0,0 l/m 3,2 km/h (1 Bft) W-NW 292 0 min 0,000 mm 0,0 UV-I 0 W/m 6,4 km/h (2 Bft)
21.01.2022 00:40 -2,9 C -4,4 C 78 % 1026,8 hPa 0,0 l/m 3,2 km/h (1 Bft) W-NW 292 0 min 0,000 mm 0,0 UV-I 0 W/m 11,3 km/h (2 Bft)
21.01.2022 00:35 -2,9 C -3,9 C 78 % 1026,8 hPa 0,0 l/m 4,8 km/h (1 Bft) NW 315 0 min 0,000 mm 0,0 UV-I 0 W/m 8,0 km/h (2 Bft)
21.01.2022 00:30 -2,9 C -4,4 C 77 % 1026,7 hPa 0,0 l/m 4,8 km/h (1 Bft) NW 315 0 min 0,000 mm 0,0 UV-I 0 W/m 8,0 km/h (2 Bft)
21.01.2022 00:25 -2,8 C -4,4 C 77 % 1026,6 hPa 0,0 l/m 4,8 km/h (1 Bft) NW 315 0 min 0,000 mm 0,0 UV-I 0 W/m 11,3 km/h (2 Bft)
21.01.2022 00:20 -2,8 C -4,4 C 77 % 1026,5 hPa 0,0 l/m 3,2 km/h (1 Bft) NW 315 0 min 0,000 mm 0,0 UV-I 0 W/m 11,3 km/h (2 Bft)
21.01.2022 00:15 -2,8 C -5,0 C 77 % 1026,5 hPa 0,0 l/m 3,2 km/h (1 Bft) NW 315 0 min 0,000 mm 0,0 UV-I 0 W/m 6,4 km/h (2 Bft)
21.01.2022 00:10 -2,7 C -4,4 C 77 % 1026,6 hPa 0,0 l/m 3,2 km/h (1 Bft) W-NW 292 0 min 0,000 mm 0,0 UV-I 0 W/m 6,4 km/h (2 Bft)
21.01.2022 00:05 -2,7 C -5,0 C 77 % 1026,5 hPa 0,0 l/m 1,6 km/h (1 Bft) W-NW 292 0 min 0,000 mm 0,0 UV-I 0 W/m 9,7 km/h (2 Bft)
21.01.2022 00:00 -2,7 C -4,4 C 77 % 1026,3 hPa 0,0 l/m 3,2 km/h (1 Bft) NW 315 0 min 0,000 mm 0,0 UV-I 0 W/m 4,8 km/h (1 Bft)
_ Min-Zeit 01:35 01:25 11:10 05:35 - 00:50 - - - - - - 03:05
Minimum _ -3,3 C -5,6 C 76 % 1025,9 hPa - 0,0 km/h (0 Bft) - - - - - - 3,2 km/h (1 Bft)
_ Max-Zeit 11:10 11:00 06:10 10:25 00:00 06:40 - - 09:40 11:00 11:10 11:10 06:35
Maximum _ 1,2 C 1,1 C 88 % 1028,5 hPa 0,0 l/m 12,9 km/h
NW (3 Bft)
- - 5 min 0,076 mm 0,6 UV-I 246 W/m 19,3 km/h
NW (3 Bft)
Durchschnitt _ -1,6 C -2,5 C 84 % 1026,9 hPa #0,0 l/m 5,2 km/h (1 Bft) NW - #1:35 h #0,101 mm 0,5 UV-I 105 W/m 10,6 km/h (2 Bft)